Miscellaneous Local Product
Issued by NWS Hastings, NE

Home | Current Version | Previous Version | Text Only | Print | Product List | Glossary Off
Versions: 1 2 3 4 5 6 7 8 9 10 11 12 13 14 15 16 17 18 19 20 21 22 23 24 25 26 27 28 29 30 31 32 33 34 35 36 37 38 39 40 41 42 43 44 45 46 47 48 49 50

000
AXUS43 KGID 030102
MISGRI

GID CWA HOURLY WEATHER ROUNDUP
NATIONAL WEATHER SERVICE HASTINGS NE
700 PM CST MON MAR 02 2015

NOTE: "FAIR" INDICATES FEW OR NO CLOUDS BELOW 12,000 FEET WITH NO
SIGNIFICANT WEATHER AND/OR OBSTRUCTIONS TO VISIBILITY.

...SOUTH CENTRAL NEBRASKA...

CITY           SKY/WX    TMP DP  RH WIND       PRES   REMARKS
GRAND ISLAND   CLOUDY    32  16  51 S14       29.97F WCI  22
HASTINGS       CLOUDY    32  14  47 S13       29.95F WCI  22
KEARNEY        CLOUDY    30  14  51 S14       29.93F WCI  20
ORD            CLOUDY    33  14  45 S17G25    29.91F WCI  22
YORK           MOCLDY    34  18  51 S12       30.01F WCI  25
AURORA         CLOUDY    34  17  49 S14G24    29.98F WCI  25
LEXINGTON      CLOUDY    32  21  62 S22G28    29.87F WCI  20
HOLDREGE       CLOUDY    32  17  53 S14       29.92F WCI  22
HEBRON         CLOUDY    33  16  49 S13       30.02F WCI  24

...NEBRASKA PANHANDLE...

CITY           SKY/WX    TMP DP  RH WIND       PRES   REMARKS
CHADRON        MOCLDY    39  24  55 SE9       29.66F WCI  33
ALLIANCE       MOCLDY    29  23  78 SE15      29.68F WCI  18
SCOTTSBLUFF      N/A     35  24  64 SE16      29.64F WCI  25
SIDNEY         CLOUDY    29  24  82 SE13      29.67F WCI  19

...WESTERN AND NORTH CENTRAL NEBRASKA...

CITY           SKY/WX    TMP DP  RH WIND       PRES   REMARKS
VALENTINE      MOCLDY    36  20  52 S16       29.78F WCI  26
AINSWORTH      MOCLDY    34  19  55 S18       29.80F WCI  23
ONEILL         CLOUDY    37  17  44 S16       29.90F WCI  27
BROKEN BOW     CLOUDY    33  19  56 S13G26    29.87F WCI  24
IMPERIAL         N/A     30  25  81 S15       29.77F WCI  19
NORTH PLATTE   CLOUDY    31  22  69 S14G23    29.82F WCI  21
MCCOOK         CLOUDY    33  23  66 S14       29.85F WCI  23

...EASTERN NEBRASKA...

CITY           SKY/WX    TMP DP  RH WIND       PRES   REMARKS
NORFOLK        CLOUDY    36  18  48 S15       29.98F WCI  27
SO SIOUX CITY  CLOUDY    34  23  64 SE13      30.05F WCI  25
TEKAMAH        CLOUDY    35  22  58 SE13      30.07F WCI  26
COLUMBUS       CLOUDY    36  16  44 SE15G22   30.02F WCI  26
ALBION         CLOUDY    36  17  46 S15       29.96F WCI  26
OMAHA EPPLEY   CLOUDY    36  21  54 SE16      30.09F WCI  26
MILLARD        CLOUDY    37  21  53 SE12      30.08F WCI  29
LINCOLN        MOCLDY    36  18  48 S17       30.06F WCI  26
NEBRASKA CITY  MOCLDY    35  14  42 SE13      30.10F WCI  26
BEATRICE       CLOUDY    35  18  50 SE10      30.07F WCI  27
FALLS CITY     CLOUDY    34  17  50 SE10      30.13F WCI  26

...NORTHERN KANSAS...

CITY           SKY/WX    TMP DP  RH WIND       PRES   REMARKS
GOODLAND       CLOUDY    30  29  96 S23       29.74F FOG     WCI  17
HILL CITY      CLOUDY    32  21  64 S14G21    29.92F WCI  22
NORTON         CLOUDY    34  19  55 SE15G22   29.88  WCI  24
PHILLIPSBURG   CLEAR     34  21  60 SE9       29.96S WCI  26
SMITH CENTER   CLEAR     30  18  59 SE14      29.98F WCI  20
BELOIT         CLEAR     32  19  59 SE15      30.01F WCI  22
HAYS           CLOUDY    30  16  55 S15       29.97S WCI  19
RUSSELL        CLOUDY    31  21  66 S18       29.97F WCI  19
CONCORDIA      CLOUDY    32  19  58 SE16      30.03F WCI  21
SALINA         CLOUDY    34  22  61 SE10      30.07F WCI  26
TOPEKA         CLOUDY    34  21  59 SE13      30.13F WCI  25



USA.gov is the U.S. government's official web portal to all federal, state and local government web resources and services.